TimeEST,TemperatureF,Dew PointF,Humidity,Sea Level PressureIn,VisibilityMPH,Wind Direction,Wind SpeedMPH,Gust SpeedMPH,PrecipitationIn,Events,Conditions,WindDirDegrees,DateUTC
12:58 AM,23.2,23.2,100,30.31,10.0,North,1.2,-,N/A,,Clear,10,2013-12-28 05:58:00
1:58 AM,23.2,23.2,100,30.31,10.0,Calm,Calm,-,N/A,,Clear,0,2013-12-28 06:58:00
2:58 AM,21.0,21.0,100,30.29,10.0,Calm,Calm,-,N/A,,Clear,0,2013-12-28 07:58:00
3:58 AM,20.5,20.5,100,30.27,10.0,Calm,Calm,-,N/A,,Clear,0,2013-12-28 08:58:00
4:58 AM,20.8,20.8,100,30.26,10.0,Calm,Calm,-,N/A,,Clear,0,2013-12-28 09:58:00
5:58 AM,20.8,20.8,100,30.26,10.0,Calm,Calm,-,N/A,,Clear,0,2013-12-28 10:58:00
6:58 AM,20.5,20.5,100,30.27,10.0,Calm,Calm,-,N/A,,Overcast,0,2013-12-28 11:58:00
7:58 AM,23.0,23.0,100,30.27,10.0,Calm,Calm,-,N/A,,Overcast,0,2013-12-28 12:58:00
8:58 AM,26.6,26.6,100,30.27,10.0,Calm,Calm,-,N/A,,Overcast,0,2013-12-28 13:58:00
9:58 AM,31.5,31.5,100,30.27,10.0,NE,1.2,-,N/A,,Mostly Cloudy,50,2013-12-28 14:58:00
10:58 AM,39.6,28.4,64,30.25,10.0,Variable,2.3,-,N/A,,Clear,0,2013-12-28 15:58:00
11:58 AM,45.5,28.8,52,30.19,10.0,South,6.9,-,N/A,,Clear,180,2013-12-28 16:58:00
12:58 PM,49.8,26.4,40,30.15,10.0,SW,11.5,-,0.00,Rain,Light Rain,230,2013-12-28 17:58:00
12:59 PM,50.0,26.6,40,30.13,10.0,SW,11.5,-,N/A,,Clear,230,2013-12-28 17:59:00
1:58 PM,52.9,26.6,36,30.13,10.0,SW,13.8,-,0.00,,Clear,230,2013-12-28 18:58:00
2:58 PM,53.8,26.8,35,30.12,10.0,WSW,11.5,-,N/A,,Clear,240,2013-12-28 19:58:00
3:58 PM,52.5,26.4,36,30.13,10.0,WSW,12.7,-,N/A,,Clear,240,2013-12-28 20:58:00
4:58 PM,48.9,25.3,40,30.14,10.0,SW,6.9,-,N/A,,Clear,230,2013-12-28 21:58:00
5:58 PM,41.9,27.3,56,30.16,10.0,NE,1.2,-,N/A,,Clear,50,2013-12-28 22:58:00
6:58 PM,35.6,30.6,82,30.15,10.0,North,2.3,-,N/A,,Clear,350,2013-12-28 23:58:00
7:59 PM,33.4,32.2,95,30.15,10.0,East,2.3,-,N/A,,Clear,100,2013-12-29 00:59:00
8:58 PM,32.2,32.0,99,30.15,10.0,Calm,Calm,-,N/A,,Clear,0,2013-12-29 01:58:00
9:58 PM,32.2,32.0,99,30.14,10.0,NE,1.2,-,N/A,,Clear,40,2013-12-29 02:58:00
10:58 PM,32.2,32.0,99,30.12,10.0,North,2.3,-,N/A,,Clear,350,2013-12-29 03:58:00
11:58 PM,31.1,30.9,99,30.11,10.0,NE,2.3,-,N/A,,Clear,50,2013-12-29 04:58:00